Weather History for KFLG - February, 2013

Change the Weather History Date:

Sunday, February 17, 2013

  Actual Average Record
Temperature  
Mean Temperature 33 °F 32 °F  
Max Temperature 48 °F 45 °F 66 °F (1977)
Min Temperature 17 °F 20 °F -8 °F (1956)
Degree Days  
Heating Degree Days 32 33  
Month to date heating degree days 608 572  
Since 1 July heating degree days 4445 4488  
Cooling Degree Days 0 0  
Month to date cooling degree days 0 0  
Year to date cooling degree days 0 0  
Moisture  
Dew Point 11 °F    
Average Humidity 46    
Maximum Humidity 74    
Minimum Humidity 18    
Precipitation  
Precipitation 0.00 in 0.08 in 0.49 in (1971)
Month to date precipitation 0.50 1.27  
Year to date precipitation 3.14 3.32  
Snow  
Snow 0.00 in 0.80 in 4.80 in (1971)
Month to date snowfall 13.3 13.3  
Since 1 July snowfall 46.3 65.6  
Snow Depth 1.00 in    
Sea Level Pressure  
Sea Level Pressure 29.93 in    
Wind  
Wind Speed 9 mph (SW)    
Max Wind Speed 28 mph    
Max Gust Speed 36 mph    
Visibility 10 miles    
Events      
T = Trace of Precipitation, MM = Missing Value Source: NWS Daily Summary

Daily Weather History Graph

Daily Weather History Graph

Search for Another Location

Airport or City:

Trip Planner

Search our weather history database for the weather conditions in past years. The results will help you decide how hot, cold, wet, or windy it might be!

Date:

Astronomy

Feb. 17, 2013 Rise Set
Actual Time 7:10 AM MST 6:11 PM MST
Civil Twilight 6:44 AM MST 6:37 PM MST
Nautical Twilight 6:14 AM MST 7:07 PM MST
Astronomical Twilight 5:45 AM MST 7:36 PM MST
Moon 11:23 AM MST (2/17) 12:53 AM MST (2/17)
Length of Visible Light 11h 52m
Length of Day
11h 01m
Waxing Crescent, 49% of the Moon is Illuminated
Feb 17
Waxing Crescent
Feb 17
First Quarter
Feb 25
Full
Mar 4
Last Quarter
Mar 11
New

Hourly Weather History & Observations

Time (MST) Temp. Windchill Dew Point Humidity Pressure Visibility Wind Dir Wind Speed Gust Speed Precip Events Conditions
12:57 AM 21.0 °F - 14.0 °F 74% 30.09 in 10.0 mi Calm Calm - N/A   Clear
1:57 AM 19.9 °F - 12.0 °F 71% 30.05 in 10.0 mi Calm Calm - N/A   Clear
2:57 AM 19.9 °F - 12.0 °F 71% 30.02 in 10.0 mi Calm Calm - N/A   Clear
3:57 AM 21.0 °F - 12.0 °F 68% 29.98 in 10.0 mi Calm Calm - N/A   Clear
4:57 AM 19.0 °F - 10.0 °F 68% 29.98 in 10.0 mi Calm Calm - N/A   Clear
5:57 AM 18.0 °F - 10.0 °F 71% 29.99 in 10.0 mi Calm Calm - N/A   Clear
6:57 AM 17.1 °F - 10.0 °F 74% 30.04 in 10.0 mi Calm Calm - N/A   Clear
7:57 AM 24.1 °F 19.7 °F 16.0 °F 71% 30.01 in 10.0 mi West 3.5 mph - N/A   Clear
8:57 AM 39.0 °F 32.8 °F 10.9 °F 32% 29.95 in 10.0 mi WSW 9.2 mph - N/A   Clear
9:57 AM 42.1 °F 34.5 °F 12.0 °F 29% 29.93 in 10.0 mi SSW 15.0 mph - N/A   Clear
10:57 AM 44.1 °F 36.8 °F 10.0 °F 25% 29.92 in 10.0 mi SW 16.1 mph 21.9 mph N/A   Clear
11:57 AM 45.0 °F 37.9 °F 12.9 °F 27% 29.89 in 10.0 mi SSW 16.1 mph 25.3 mph N/A   Clear
12:57 PM 46.0 °F 39.6 °F 12.9 °F 26% 29.87 in 10.0 mi SW 15.0 mph 26.5 mph N/A   Clear
1:57 PM 46.9 °F - 10.0 °F 22% 29.85 in 10.0 mi WSW 15.0 mph 23.0 mph N/A   Clear
2:57 PM 46.9 °F - 12.9 °F 25% 29.83 in 10.0 mi SSW 21.9 mph 35.7 mph N/A   Clear
3:57 PM 48.0 °F - 6.1 °F 18% 29.81 in 10.0 mi WSW 17.3 mph 26.5 mph N/A   Clear
4:57 PM 46.0 °F 38.5 °F 7.0 °F 20% 29.83 in 10.0 mi WSW 19.6 mph 28.8 mph N/A   Clear
5:57 PM 43.0 °F 35.7 °F 10.0 °F 26% 29.87 in 10.0 mi WSW 15.0 mph 21.9 mph N/A   Clear
6:57 PM 39.9 °F 31.8 °F 9.0 °F 28% 29.90 in 10.0 mi SW 15.0 mph - N/A   Clear
7:57 PM 37.9 °F 29.2 °F 9.0 °F 30% 29.88 in 10.0 mi SW 15.0 mph 21.9 mph N/A   Clear
8:57 PM 37.0 °F 30.4 °F 10.0 °F 33% 29.85 in 10.0 mi WSW 9.2 mph - N/A   Clear
9:57 PM 34.0 °F 27.2 °F 10.9 °F 38% 29.87 in 10.0 mi WSW 8.1 mph - N/A   Clear
10:57 PM 27.0 °F - 12.9 °F 56% 29.91 in 10.0 mi Calm Calm - N/A   Clear
11:57 PM 25.0 °F - 15.1 °F 66% 29.93 in 10.0 mi Calm Calm - N/A   Clear